Flight Track Log - Related Links

Times and Time Zones

All times are in EDT time to prevent confusion due to time zone crossing. See the JBU1049 flight status page for this flight to view local times or setup timezone preferences in your user account.

Time Position Orientation Groundspeed Altitude Reporting Facility
EDT Latitude Longitude Course Direction KTS MPH feet Rate Location/Type
Sun 10:58:54 PM 26.0790 -80.1170 82° East 162 186 1,400  Level FlightAware ADS-B
Sun 10:59:22 PM 26.0820 -80.0920 82° East 193 222 2,000 1,364 Climbing FlightAware ADS-B
Sun 10:59:38 PM 26.0830 -80.0750 86° East 211 243 2,400 1,241 Climbing FlightAware ADS-B
Sun 10:59:51 PM 26.0820 -80.0610 95° East 234 269 2,600 2,049 Climbing FlightAware ADS-B
Sun 11:00:19 PM 26.0760 -80.0280 101° East 250 288 3,800 3,000 Climbing FlightAware ADS-B
Sun 11:00:43 PM 26.0700 -79.9950 101° East 257 296 5,200 3,500 Climbing FlightAware ADS-B
Sun 11:01:07 PM 26.0650 -79.9640 100° East 259 298 6,600 3,538 Climbing FlightAware ADS-B
Sun 11:01:22 PM 26.0620 -79.9440 99° East 257 296 7,500 3,200 Climbing FlightAware ADS-B
Sun 11:01:52 PM 26.0560 -79.9040 99° East 262 302 9,000 2,609 Climbing FlightAware ADS-B
Sun 11:02:31 PM 26.0480 -79.8520 100° East 280 322 10,500 1,630 Climbing FlightAware ADS-B
Sun 11:03:13 PM 26.0380 -79.7870 100° East 328 377 11,200 1,605 Climbing FlightAware ADS-B
Sun 11:03:57 PM 26.0270 -79.7120 99° East 342 394 12,800 2,118 Climbing FlightAware ADS-B
Sun 11:04:38 PM 26.0160 -79.6420 100° East 353 406 14,200 2,023 Climbing FlightAware ADS-B
Sun 11:05:23 PM 25.9940 -79.5590 106° East 372 428 15,700 1,862 Climbing FlightAware ADS-B
Sun 11:06:05 PM 25.9600 -79.4870 118° Southeast 381 438 16,900 1,778 Climbing FlightAware ADS-B
Sun 11:06:44 PM 25.9280 -79.4180 117° Southeast 389 448 18,100 1,902 Climbing FlightAware ADS-B
Sun 11:07:27 PM 25.8930 -79.3430 117° Southeast 390 449 19,500 1,744 Climbing FlightAware ADS-B
Sun 11:08:10 PM 25.8550 -79.2630 118° Southeast 401 461 20,600 1,500 Climbing FlightAware ADS-B
Sun 11:08:51 PM 25.8200 -79.1890 118° Southeast 407 468 21,600 1,390 Climbing FlightAware ADS-B
Sun 11:09:32 PM 25.7820 -79.1120 119° Southeast 415 478 22,500 1,333 Climbing FlightAware ADS-B
Sun 11:10:12 PM 25.7450 -79.0360 118° Southeast 422 486 23,400 1,326 Climbing FlightAware ADS-B
Sun 11:10:58 PM 25.7020 -78.9470 118° Southeast 429 494 24,400 1,281 Climbing FlightAware ADS-B
Sun 11:11:41 PM 25.6630 -78.8630 117° Southeast 434 499 25,300 1,350 Climbing FlightAware ADS-B
Sun 11:12:18 PM 25.6280 -78.7900 118° Southeast 436 502 26,200 1,135 Climbing FlightAware ADS-B
Sun 11:12:55 PM 25.5940 -78.7170 117° Southeast 446 513 26,700 868 Climbing FlightAware ADS-B
Sun 11:13:34 PM 25.5550 -78.6390 119° Southeast 455 524 27,300 1,050 Climbing FlightAware ADS-B
Sun 11:14:15 PM 25.5070 -78.5600 124° Southeast 461 531 28,100 947 Climbing FlightAware ADS-B
Sun 11:14:50 PM 25.4650 -78.4900 124° Southeast 468 539 28,500 900 Climbing FlightAware ADS-B
Sun 11:15:35 PM 25.4100 -78.4000 124° Southeast 469 540 29,300 988 Climbing FlightAware ADS-B
Sun 11:16:15 PM 25.3650 -78.3260 124° Southeast 471 542 29,900 988 Climbing FlightAware ADS-B
Sun 11:17:00 PM 25.3100 -78.2360 124° Southeast 472 543 30,700 1,200 Climbing FlightAware ADS-B
Sun 11:17:40 PM 25.2590 -78.1510 124° Southeast 468 539 31,600 1,263 Climbing FlightAware ADS-B
Sun 11:18:35 PM 25.1890 -78.0380 124° Southeast 469 540 32,700 1,011 Climbing FlightAware ADS-B
Sun 11:19:15 PM 25.1460 -77.9670 124° Southeast 467 537 33,200 385 Climbing FlightAware ADS-B
Sun 11:19:53 PM 25.1080 -77.9030 123° Southeast 467 537 33,200  Level FlightAware ADS-B
Sun 11:20:41 PM 25.0600 -77.8210 123° Southeast 467 537 33,200  Level FlightAware ADS-B
Sun 11:21:17 PM 25.0240 -77.7600 123° Southeast 467 537 33,200  Level FlightAware ADS-B
Sun 11:21:54 PM 24.9870 -77.6970 123° Southeast 467 537 33,200  Level FlightAware ADS-B
Sun 11:22:30 PM 24.9510 -77.6360 123° Southeast 467 537 33,200  Level FlightAware ADS-B
Sun 11:23:18 PM 24.9030 -77.5540 123° Southeast 467 537 33,200  Level FlightAware ADS-B
Sun 11:23:54 PM 24.8670 -77.4930 123° Southeast 467 537 33,200  Level FlightAware ADS-B
Sun 11:24:43 PM 24.8180 -77.4100 123° Southeast 467 537 33,200  Level FlightAware ADS-B
Sun 11:25:19 PM 24.7820 -77.3490 123° Southeast 467 537 33,200  Level FlightAware ADS-B
Sun 11:26:06 PM 24.7350 -77.2690 123° Southeast 467 537 33,200  Level FlightAware ADS-B
Sun 11:26:42 PM 24.6990 -77.2080 123° Southeast 467 537 33,200  Level FlightAware ADS-B
Sun 11:27:19 PM 24.6620 -77.1460 123° Southeast 467 537 33,200  Level FlightAware ADS-B
Sun 11:28:05 PM 24.6160 -77.0680 123° Southeast 467 537 33,200  Level FlightAware ADS-B
Sun 11:28:41 PM 24.5800 -77.0070 123° Southeast 467 537 33,200 3,123 Level FlightAware ADS-B
Sun 11:29:18 PM 24.4125 -76.7881 123° Southeast 470 541 37,000 2,303 Climbing Miami Center
Sun 11:30:20 PM 24.3372 -76.6719 125° Southeast 470 541 37,000  Level Miami Center
Sun 11:31:18 PM 24.2553 -76.5442 125° Southeast 470 541 37,000  Level Miami Center
Sun 11:32:19 PM 24.1819 -76.4283 125° Southeast 470 541 37,000  Level Miami Center
Sun 11:33:18 PM 24.1083 -76.3103 124° Southeast 470 541 37,000  Level Miami Center
Sun 11:34:18 PM 24.0347 -76.1922 124° Southeast 475 547 37,000  Level Miami Center
Sun 11:35:20 PM 23.9569 -76.0719 125° Southeast 475 547 37,000  Level Miami Center
Sun 11:36:18 PM 23.8831 -75.9567 125° Southeast 467 537 37,000  Level Miami Center
Sun 11:37:18 PM 23.8092 -75.8344 123° Southeast 474 545 37,000  Level Miami Center
Sun 11:38:20 PM 23.7331 -75.7172 125° Southeast 474 545 37,000  Level Miami Center
Sun 11:39:20 PM 23.6589 -75.5953 124° Southeast 479 551 37,000  Level Miami Center
Sun 11:40:17 PM 23.5806 -75.4736 125° Southeast 484 557 37,000  Level Miami Center
Sun 11:41:18 PM 23.5000 -75.3544 126° Southeast 484 557 37,000  Level Miami Center
Sun 11:42:18 PM 23.4214 -75.2353 126° Southeast 484 557 37,000  Level Miami Center
Sun 11:43:20 PM 23.3447 -75.1164 125° Southeast 484 557 37,000  Level Miami Center
Sun 11:44:18 PM 23.2661 -74.9956 125° Southeast 484 557 37,000  Level Miami Center
Sun 11:45:20 PM 23.1958 -74.8881 125° Southeast 489 563 37,000  Level Miami Center
Sun 11:46:18 PM 23.1169 -74.7694 126° Southeast 489 563 37,000  Level Miami Center
Sun 11:47:18 PM 23.0358 -74.6489 126° Southeast 489 563 37,000  Level Miami Center
Sun 11:48:18 PM 22.9586 -74.5283 125° Southeast 489 563 37,000  Level Miami Center
Sun 11:49:18 PM 22.8772 -74.4058 126° Southeast 489 563 37,000 50 Level Miami Center
Sun 11:50:18 PM 22.8022 -74.2903 125° Southeast 484 557 37,100  Climbing Miami Center
Sun 11:51:18 PM 22.7208 -74.1681 126° Southeast 489 563 37,000 -50 Descending Miami Center
Sun 11:52:18 PM 22.6414 -74.0525 127° Southeast 489 563 37,000 -50 Level Miami Center
Sun 11:53:18 PM 22.5639 -73.9328 125° Southeast 489 563 36,900  Descending Miami Center
Sun 11:54:20 PM 22.4864 -73.8156 126° Southeast 489 563 37,000 50 Climbing Miami Center
Sun 11:55:19 PM 22.4025 -73.6961 127° Southeast 489 563 37,000 50 Level Miami Center
Sun 11:56:19 PM 22.3228 -73.5744 125° Southeast 494 568 37,100  Climbing Miami Center
Sun 11:57:19 PM 22.2383 -73.4467 126° Southeast 488 562 37,000 -51 Descending Miami Center
Sun 11:58:17 PM 22.1606 -73.3297 126° Southeast 482 555 37,000  Level Miami Center
Sun 11:59:17 PM 22.0783 -73.2089 126° Southeast 488 562 37,000  Level Miami Center
Mon 12:00:19 AM 21.9961 -73.0903 127° Southeast 493 567 37,000  Level Miami Center
Mon 12:01:18 AM 21.9158 -72.9694 126° Southeast 493 567 37,000  Level Miami Center
Mon 12:02:18 AM 21.8356 -72.8511 126° Southeast 493 567 37,000  Level Miami Center
Mon 12:03:18 AM 21.7553 -72.7328 126° Southeast 493 567 37,000  Level Miami Center
Mon 12:04:19 AM 21.6769 -72.6169 126° Southeast 487 560 37,000  Level Miami Center
Mon 12:05:20 AM 21.5964 -72.4989 126° Southeast 487 560 37,000  Level Miami Center
Mon 12:06:20 AM 21.5158 -72.3833 127° Southeast 487 560 37,000  Level Miami Center
Mon 12:07:17 AM 21.4372 -72.2658 126° Southeast 487 560 37,000  Level Miami Center
Mon 12:08:20 AM 21.3564 -72.1503 127° Southeast 487 560 37,000  Level Miami Center
Mon 12:09:17 AM 21.2778 -72.0331 126° Southeast 487 560 37,000  Level Miami Center
Mon 12:10:18 AM 21.1969 -71.9181 127° Southeast 487 560 37,000  Level Miami Center
Mon 12:11:20 AM 21.1158 -71.8008 127° Southeast 487 560 37,000  Level Miami Center
Mon 12:12:18 AM 21.0350 -71.6839 127° Southeast 487 560 37,000  Level Miami Center
Mon 12:13:19 AM 20.9336 -71.5903 139° Southeast 482 555 37,000  Level Miami Center
Mon 12:14:19 AM 20.8347 -71.5031 140° Southeast 471 542 37,000  Level Miami Center
Mon 12:15:20 AM 20.7358 -71.4139 140° Southeast 471 542 37,000  Level Miami Center
Mon 12:16:20 AM 20.6367 -71.3247 140° Southeast 466 536 37,000  Level Miami Center
Mon 12:17:18 AM 20.5378 -71.2381 141° Southeast 466 536 37,000  Level Miami Center
Mon 12:18:20 AM 20.4364 -71.1492 141° Southeast 466 536 37,000  Level Miami Center
Mon 12:20:00 AM 20.2843 -71.0182 138° Southeast  Level FlightAware Approximate
Mon 12:27:00 AM 19.6606 -70.4427 131° Southeast  Level FlightAware Approximate
Mon 12:28:00 AM 19.5825 -70.3489 131° Southeast  Level FlightAware Approximate
Mon 12:29:00 AM 19.5043 -70.2551 131° Southeast  Level FlightAware Approximate
Mon 12:30:00 AM 19.4307 -70.1574 128° Southeast  Level FlightAware Approximate
Mon 12:31:00 AM 19.3573 -70.0594 128° Southeast  Level FlightAware Approximate
Mon 12:32:00 AM 19.2838 -69.9616 128° Southeast  Level FlightAware Approximate
Mon 12:33:00 AM 19.1891 -69.8967 164° South  Level FlightAware Approximate
Mon 12:34:00 AM 19.0756 -69.8627 164° South  Level FlightAware Approximate
Mon 12:35:00 AM 18.9622 -69.8281 164° South  Level FlightAware Approximate
Mon 12:36:00 AM 18.8489 -69.7933 164° South  Level FlightAware Approximate
Mon 12:37:00 AM 18.7362 -69.7565 162° South  Level FlightAware Approximate
Mon 12:38:00 AM 18.6245 -69.7165 159° South  Level FlightAware Approximate
Mon 12:39:00 AM 18.5107 -69.6855 169° South  Level FlightAware Approximate
Mon 12:40:00 AM 18.4297 -69.6689 159° South  Level Estimated
Mon 12:41:00 AM 18.4297 -69.6689 159° South  Level Estimated
Mon 12:42:00 AM 18.4297 -69.6689 159° South  Level Estimated
Mon 12:43:00 AM 18.4297 -69.6689 159° South  Level Estimated
Mon 12:44:00 AM 18.4297 -69.6689 159° South  Level Estimated
Mon 12:45:00 AM 18.4297 -69.6689 159° South  Level Estimated
Mon 12:46:00 AM 18.4297 -69.6689 159° South  Level Estimated
Mon 12:47:00 AM 18.4297 -69.6689 159° South  Level Estimated
Mon 12:48:00 AM 18.4297 -69.6689 159° South  Level Estimated
Mon 12:49:00 AM 18.4297 -69.6689 159° South  Level Estimated
Mon 12:50:00 AM 18.4297 -69.6689 159° South  Level Estimated
Mon 12:51:00 AM 18.4297 -69.6689 159° South  Level Estimated
Mon 12:52:00 AM 18.4297 -69.6689 159° South  Level Estimated
Mon 12:53:00 AM 18.4297 -69.6689 159° South  Level Estimated
Mon 12:54:00 AM 18.4297 -69.6689 159° South  Level Estimated
Mon 12:55:00 AM 18.4297 -69.6689 159° South  Level Estimated
Mon 12:56:00 AM 18.4297 -69.6689 159° South  Level Estimated

Login

Don't have an account? Register now (free) for customized features, flight alerts, and more!